www.pogodaiklimat.ru

Погода и климат >> Архив погоды >> Австралия >> Newman Aero


ПОГОДА в Newman Aero

  • Прогноз погоды в Newman Aero
  • Монитор погоды в Newman Aero
  • Климат города

АРХИВ ПОГОДЫ в Newman Aero

Время (UTC), дата Ветер
(напр.,м/с)
 
Видим.   Явления Облачность Т
(С)
Тd
(С)
f
(%)
Тe
(С)
Тes
(С)
Комфортность P
(гПа)
Po
(гПа)
Тmin
(С)
Tmax
(С)
R
(мм)
R24
(мм)
S
(см)
16 11.12 ЮЗ 3 н/о н/о +28.1 -1.9 14 +25 +25 комфорт 1005.2 948.4
18 11.12 З 3 н/о н/о +24.8 -0.4 19 +23 +23 комфорт 1005.2 948.4
19 11.12 ЮЗ 4 н/о н/о +23.9 +0.3 21 +23 +23 комфорт 1005.2 948.4
21 11.12 ЮЗ 3 н/о н/о +23.1 -1.1 20 +22 +22 комфорт 1006.3 949.4
22 11.12 ЮЗ 4 н/о н/о +24.3 -0.1 20 +23 +23 комфорт 1006.9 950.0
00 12.12 Ю 7 н/о н/о +30.5 +4.3 19 +28 +28 жарко 1007.2 950.3
01 12.12 ЮВ 5 н/о н/о +32.9 +4.6 17 +30 +30 жарко 1006.6 949.7 +22.5
03 12.12 Ю 6 н/о н/о +35.9 +0.9 11 +32 +32 жарко 1005.8 948.9
04 12.12 Ю 4 н/о н/о +38.2 -0.2 9 +34 +34 очень
жарко
1004.9 948.1
06 12.12 ЮЗ 4 н/о н/о +38.9 -1.3 8 +35 +35 очень
жарко
1003.3 946.6
07 12.12 ЮЗ 6 н/о н/о +40.2 -4.2 6 +36 +36 очень
жарко
1002.7 946.0
09 12.12 ЮЗ 5 н/о н/о +39.8 -4.5 6 +36 +36 очень
жарко
1002.8 946.1
10 12.12 Ю 5 н/о н/о +38.6 -3.3 7 +34 +34 очень
жарко
1003.2 946.5
12 12.12 Ю 3 н/о н/о +33.1 -2.6 10 +29 +29 жарко 1004.6 947.8
13 12.12 Ю 3 н/о н/о +30.6 -2.0 12 +27 +27 жарко 1005.0 948.2 +41.5
15 12.12 Ю 4 н/о н/о +30.2 -0.2 14 +27 +27 жарко 1005.1 948.3
16 12.12 Ю 4 н/о н/о +29.2 +0.8 16 +27 +27 жарко 1004.6 947.8
18 12.12 Ю 3 н/о н/о +26.9 +2.7 21 +25 +25 комфорт 1004.4 947.6
19 12.12 штиль 0 н/о н/о +24.4 +3.7 26 +24 +24 комфорт 1004.7 947.9
21 12.12 В 3 н/о н/о +26.6 +9.5 34 +27 +27 жарко 1006.0 949.1
22 12.12 В 5 н/о н/о +27.5 +13.1 41 +29 +29 жарко 1007.0 950.1
00 13.12 В 8 н/о н/о +30.4 +10.9 30 +31 +31 жарко 1008.3 951.3
01 13.12 В 8 н/о н/о +31.1 +10.4 28 +31 +31 жарко 1008.4 951.4 +24.2
03 13.12 В 7 н/о н/о +35.3 +10.4 22 +34 +34 очень
жарко
1007.5 950.5
04 13.12 В 6 н/о н/о +36.3 +9.8 20 +35 +35 очень
жарко
1006.6 949.7
06 13.12 СВ 4 н/о н/о +38.6 +7.4 15 +36 +36 очень
жарко
1004.9 948.1
07 13.12 В 6 н/о н/о +39.2 +5.7 13 +36 +36 очень
жарко
1004.2 947.4
09 13.12 В 2 н/о н/о +40.0 +5.2 12 +37 +37 очень
жарко
1003.7 947.0
10 13.12 СВ 4 н/о н/о +38.6 +5.3 13 +36 +36 очень
жарко
1003.7 947.0
12 13.12 В 5 н/о н/о +35.8 +5.1 15 +33 +33 жарко 1004.9 948.1
13 13.12 В 5 н/о н/о +34.7 +5.2 16 +32 +32 жарко 1005.1 948.3 +40.8
15 13.12 В 5 н/о н/о +32.6 +4.4 17 +30 +30 жарко 1005.3 948.5
16 13.12 В 5 н/о н/о +31.8 +3.8 17 +29 +29 жарко 1004.7 947.9
18 13.12 В 5 н/о н/о +30.1 +2.4 17 +28 +28 жарко 1004.6 947.8
19 13.12 В 5 н/о н/о +29.1 +3.1 19 +27 +27 жарко 1004.9 948.1
21 13.12 В 4 н/о н/о +27.3 +2.4 20 +26 +26 жарко 1006.5 949.6
22 13.12 СВ 4 н/о н/о +27.2 +1.6 19 +25 +25 комфорт 1007.1 950.2
00 14.12 СВ 7 н/о н/о +30.3 -0.1 14 +27 +27 жарко 1007.8 950.8
01 14.12 СВ 8 н/о н/о +31.3 -0.4 13 +28 +28 жарко 1007.2 950.3 +26.9
03 14.12 В 7 н/о н/о +35.1 -1.1 10 +31 +31 жарко 1005.5 948.7
04 14.12 В 7 н/о н/о +36.4 -0.1 10 +33 +33 жарко 1004.6 947.8
06 14.12 СВ 5 н/о н/о +38.8 +0.3 9 +35 +35 очень
жарко
1002.5 945.8
07 14.12 С 3 н/о н/о +40.6 0.0 8 +37 +37 очень
жарко
1001.9 945.3
09 14.12 В 3 н/о н/о +39.8 -0.6 8 +36 +36 очень
жарко
1001.3 944.7
10 14.12 СВ 3 н/о н/о +38.8 +0.3 9 +35 +35 очень
жарко
1001.2 944.6
12 14.12 В 4 н/о н/о +36.3 +1.2 11 +33 +33 жарко 1001.3 944.7
13 14.12 СВ 4 н/о 10/0
[]
+35.0 +1.4 12 +32 +32 жарко 1001.4 944.8 +41.0
15 14.12 ЮВ 3 н/о н/о +34.3 +0.8 12 +31 +31 жарко 1002.5 945.8
16 14.12 В 6 н/о 1/0
[]
+33.6 +0.3 12 +30 +30 жарко 1001.7 945.1
18 14.12 СВ 3 н/о н/о +30.2 +0.7 15 +27 +27 жарко 1000.6 944.0
19 14.12 В 3 н/о н/о +29.3 +1.7 17 +27 +27 жарко 1000.5 943.9
21 14.12 С 2 н/о н/о +26.7 +1.9 20 +25 +25 комфорт 1001.4 944.8
22 14.12 СЗ 3 н/о н/о +27.6 +3.3 21 +26 +26 жарко 1002.1 945.4
00 15.12 ЮЗ 4 н/о н/о +31.9 +8.2 23 +31 +31 жарко 1002.8 946.1
01 15.12 Ю 3 н/о н/о +34.3 +7.4 19 +32 +32 жарко 1002.6 945.9 +26.7
03 15.12 СЗ 4 н/о н/о +37.0 +6.1 15 +34 +34 очень
жарко
1000.9 944.3
04 15.12 СЗ 5 н/о н/о +38.8 +5.4 13 +36 +36 очень
жарко
1000.0 943.5
06 15.12 СЗ 8 н/о н/о +41.1 +2.0 9 +38 +38 очень
жарко
997.7 941.3
07 15.12 СЗ 6 н/о н/о +42.5 -0.5 7 +39 +39 очень
жарко
996.5 940.2
09 15.12 СЗ 6 н/о н/о +42.4 -5.1 5 +38 +38 очень
жарко
995.8 939.5
10 15.12 З 5 н/о н/о +39.9 +2.5 10 +36 +36 очень
жарко
996.5 940.2
12 15.12 З 5 н/о н/о +35.4 -2.3 9 +31 +31 жарко 998.6 942.1
13 15.12 З 3 н/о н/о +33.4 -3.7 9 +29 +29 жарко 999.3 942.8 +43.3
15 15.12 ЮЗ 4 н/о н/о +31.4 +4.2 18 +29 +29 жарко 999.9 943.4
16 15.12 ЮЗ 4 н/о н/о +30.2 +4.8 20 +28 +28 жарко 999.9 943.4
18 15.12 ЮЗ 3 н/о н/о +27.3 +6.7 27 +27 +27 жарко 999.6 943.1
19 15.12 ЮЗ 4 н/о н/о +26.5 +7.5 30 +26 +26 жарко 999.9 943.4
21 15.12 З 4 н/о н/о +24.9 +8.8 36 +25 +25 комфорт 1001.2 944.6
22 15.12 З 5 н/о н/о +25.6 +9.0 35 +26 +26 жарко 1001.9 945.3
00 16.12 ЮЗ 6 н/о н/о +28.7 +9.9 31 +29 +29 жарко 1002.9 946.2
01 16.12 З 5 н/о н/о +30.3 +9.8 28 +30 +30 жарко 1002.8 946.1 +24.9
03 16.12 З 6 н/о н/о +32.2 +8.4 23 +31 +31 жарко 1002.1 945.4
04 16.12 З 4 н/о н/о +33.4 +8.1 21 +32 +32 жарко 1001.1 944.5
06 16.12 СЗ 6 н/о н/о +36.6 +2.6 12 +33 +33 жарко 999.1 942.6
07 16.12 З 8 н/о н/о +36.8 +3.9 13 +34 +34 очень
жарко
998.1 941.7
09 16.12 З 7 н/о н/о +36.0 -0.4 10 +32 +32 жарко 997.8 941.4
10 16.12 ЮЗ 9 н/о н/о +33.2 -1.2 11 +30 +30 жарко 998.7 942.2
12 16.12 ЮЗ 7 н/о н/о +29.5 -1.8 13 +26 +26 жарко 1000.5 943.9
13 16.12 ЮЗ 8 н/о н/о +28.4 +0.2 16 +26 +26 жарко 1001.2 944.6 +38.8
15 16.12 ЮЗ 6 н/о н/о +25.7 +5.3 27 +25 +25 комфорт 1001.8 945.2
16 16.12 ЮЗ 6 н/о н/о +24.9 +5.2 28 +24 +24 комфорт 1001.9 945.3
18 16.12 ЮЗ 6 н/о н/о +23.1 +6.4 34 +24 +24 комфорт 1001.9 945.3
19 16.12 ЮЗ 5 н/о н/о +21.9 +6.2 36 +23 +23 комфорт 1002.5 945.8
21 16.12 ЮЗ 5 н/о н/о +19.9 +4.4 36 +20 +20 1004.0 947.2
22 16.12 ЮЗ 4 н/о н/о +20.3 +3.5 33 +21 +21 комфорт 1004.7 947.9
00 17.12 ЮЗ 7 н/о н/о +22.2 +5.2 33 +23 +23 комфорт 1005.4 948.6
01 17.12 ЮЗ 6 н/о н/о +24.2 +5.1 29 +24 +24 комфорт 1005.5 948.7 +19.9
03 17.12 ЮЗ 7 н/о н/о +27.2 +4.9 24 +26 +26 жарко 1005.2 948.4
04 17.12 ЮЗ 6 н/о н/о +28.6 +5.5 23 +27 +27 жарко 1004.6 947.8
06 17.12 З 7 н/о н/о +30.3 +6.2 22 +29 +29 жарко 1003.4 946.7
07 17.12 Ю 6 н/о н/о +30.5 +5.7 21 +29 +29 жарко 1002.9 946.2
09 17.12 Ю 6 н/о н/о +30.9 +6.0 21 +29 +29 жарко 1002.8 946.1
10 17.12 Ю 7 н/о н/о +29.9 +4.5 20 +28 +28 жарко 1003.4 946.7
12 17.12 Ю 4 н/о н/о +27.7 +4.7 23 +26 +26 жарко 1005.2 948.4
13 17.12 ЮЗ 2 н/о н/о +26.0 +4.5 25 +25 +25 комфорт 1005.7 948.8 +32.3
15 17.12 З 2 н/о н/о +23.1 +4.1 29 +23 +23 комфорт 1005.9 949.0
16 17.12 ЮЗ 1 н/о н/о +22.4 +4.0 30 +22 +22 комфорт 1005.1 948.3
18 17.12 ЮЗ 3 н/о н/о +22.0 +4.1 31 +22 +22 комфорт 1004.5 947.7
19 17.12 ЮЗ 2 н/о н/о +20.8 +4.0 33 +22 +22 комфорт 1004.8 948.0
21 17.12 ЮЗ 2 н/о н/о +19.9 +4.4 36 +21 +21 комфорт 1006.0 949.1
22 17.12 ЮЗ 2 н/о н/о +21.3 +5.2 35 +22 +22 комфорт 1006.9 950.0
00 18.12 ЮВ 5 н/о н/о +27.0 +8.9 32 +27 +27 жарко 1008.4 951.4
01 18.12 ЮВ 5 н/о н/о +28.2 +8.5 29 +28 +28 жарко 1008.4 951.4 +19.6
03 18.12 ЮВ 3 н/о н/о +31.0 +6.1 21 +29 +29 жарко 1008.0 951.0
04 18.12 З 4 н/о н/о +32.3 +4.2 17 +30 +30 жарко 1007.4 950.4
06 18.12 В 6 н/о н/о +34.5 +4.1 15 +32 +32 жарко 1006.1 949.2
07 18.12 З 3 н/о н/о +34.6 +3.2 14 +32 +32 жарко 1005.4 948.6
09 18.12 В 3 н/о н/о +35.1 +2.6 13 +32 +32 жарко 1005.1 948.3
10 18.12 Ю 5 н/о н/о +34.6 +2.2 13 +31 +31 жарко 1005.7 948.8
12 18.12 ЮВ 3 н/о н/о +31.4 +3.4 17 +29 +29 жарко 1006.8 949.9
13 18.12 ЮВ 3 н/о н/о +29.8 +3.7 19 +28 +28 жарко 1007.4 950.4 +36.6
15 18.12 ЮВ 4 н/о н/о +29.0 +3.1 19 +27 +27 жарко 1007.4 950.4

 

Местоположение метеостанции Newman Aero (Западная Австралия, Австралия): широта -23.41 долгота 119.80 высота над уровнем моря 524 м.

В архиве по умолчанию представлена погода в Newman Aero за последнюю неделю. Архивные данные за месяц целиком и за предыдущие месяцы, начиная с января 2011 года, Вы можете получить, выбрав интересующий диапазон дат из раскрывающегося списка и нажав кнопку "Ввод!".


*Определитесь, кто Вы:
робот инопланетянин человек

Внимание! Время в таблицах - всемирное. Для получения местного времени необходимо прибавить поправку, которая в Newman Aero равна 8 ч.

Смотрите также архив погоды в соседних городах и на ближайших метеорологических станциях:

Погода в Paraburdoo Aero (Западная Австралия, Австралия) (211 км)
Погода в Marble Bar (Западная Австралия, Австралия) (248 км)
Погода в Telfer Aero (Западная Австралия, Австралия) (311 км)
Погода в Port Hedland Apardoo (Западная Австралия, Австралия) (360 км)
Погода в Meekatharra Airport (Западная Австралия, Австралия) (378 км)
Погода в Roebourne Aero (Западная Австралия, Австралия) (403 км)
Погода в Mandora (Западная Австралия, Австралия) (423 км)
Погода в Karratha Aero (Западная Австралия, Австралия) (432 км)
Погода в Mardie (Западная Австралия, Австралия) (466 км)
Погода в Leinster Aero (Западная Австралия, Австралия) (502 км)

Пояснения к столбцам:

Ветер - указаны скорость ветра в м/с - средняя за 10 мин, порывы в срок и между сроками (в фигурных скобках) и направление, откуда дует ветер: С - северный, СВ - северо-восточный, В - восточный, ЮВ - юго-восточный, Ю - южный, ЮЗ - юго-западный, З - западный, СЗ - северо-западный.
Видимость - горизонтальная дальность видимости в метрах или километрах. При видимости от 1 до 10 км при отсутствии осадков обычно наблюдается дымка, при ухудшении видимости до 1 км и менее - туман. В сухую погоду видимость может ухудшаться дымом, пылью или мглою.
Явления - указаны атмосферные явления, наблюдавшиеся в срок или в последний час перед сроком; фигурными скобками обозначены явления, наблюдавшиеся между сроками (за 1-3 часа до срока); квадратными скобками обозначены град или гололедные отложения с указанием их диаметра в мм.
Облачность - указаны через наклонную черту общая и нижняя облачность в баллах и высота нижней границы облаков в метрах; квадратными скобками обозначены формы облаков: Ci - перистые, Cs - перисто-слоистые, Cc - перисто-кучевые, Ac - высококучевые, As - высокослоистые, Sc - слоисто-кучевые, Ns - слоисто-дождевые, Cu - кучевые, Cb - кучево-дождевые. Подробнее классификацию облаков см. в Атласе облаков (PDF).
T - Температура воздуха - температура, измеренная на высоте 2 м над землей.
Td - Температура точки росы - температура, при понижении до которой содержащийся в воздухе водяной пар достигнет насыщения.
f - Относительная влажность воздуха - влажноcть воздуха, измеренная на высоте 2 м над землей.
Te - Эффективная температура - температура, которую ощущает одетый по сезону человек в тени. Характеристика душности погоды. При расчете учитывается влияние влажности воздуха и скорости ветра на теплоощущения человека.
Tes - Эффективная температура на солнце - температура, которую ощущает человек, с поправкой на солнечный нагрев. Характеристика знойности погоды. Зависит от высоты солнца над горизонтом, облачности и скорости ветра. Ночью, в пасмурную погоду, а также при ветре 12 м/с и более поправка равна нулю.
P - Атмосферное давление - приведенное к уровню моря атмосферное давление.
Po - Атмосферное давление - измеренное на уровне метеостанции атмосферное давление.
Tmin - Минимальная температура - минимум температуры воздуха на высоте 2 м над землей.
Tmax - Максимальная температура - максимум температуры воздуха на высоте 2 м над землей.
R - Количество осадков - Количество выпавших осадков за период времени, мм. При наведении курсора мыши на число - период времени, за который выпало указанное количество осадков.
R24 - Количество осадков - Количество выпавших осадков за 24 часа, мм.
S - Снежный покров - Высота снежного покрова, см. При наведении курсора мыши на число - состояние снежного покрова и степень покрытия местности в баллах.